[Iaude] MPEC P63: 2024 OV3 [a=1.78,e=0.59,i=5.0,H=20.9]

mpec at cfa.harvard.edu mpec at cfa.harvard.edu
Sun Aug 4 21:56:25 EDT 2024


M.P.E.C. 2024-P63                                Issued 2024 August 5, 01:55 UT

     The Minor Planet Electronic Circulars contain information on unusual
         minor planets, routine data on comets and natural satellites,
         and occasional editorial announcements.  They are published
    on behalf of Division F of the International Astronomical Union by the
          Minor Planet Center, Smithsonian Astrophysical Observatory,
                          Cambridge, MA 02138, U.S.A.
			  
             Prepared using the Tamkin Foundation Computer Network

                              MPC at CFA.HARVARD.EDU
            URL https://www.minorplanetcenter.net/    ISSN 1523-6714

                                    2024 OV3                                    


Observations:
     K24O03V* C2024 07 28.53093323 21 55.253-19 43 17.27         21.10wXEP063F51
     K24O03V  C2024 07 28.54280123 21 52.895-19 43 25.82         21.12wXEP063F51
     K24O03V  C2024 07 28.56273623 21 48.915-19 43 39.81         21.32wXEP063F51
     K24O03V 3C2024 07 30.58358523 15 22.307-20 06 58.48         20.61GVEP063T14
     K24O03V 3C2024 07 30.58456123 15 22.113-20 06 59.08         20.59GVEP063T14
     K24O03V 3C2024 07 30.58554123 15 21.917-20 06 59.74         20.62GVEP063T14
     K24O03V !C2024 07 31.41753 23 12 43.00 -20 16 13.1          20.2 GVEP063673
     K24O03V !C2024 07 31.42313 23 12 41.93 -20 16 17.0                VEP063673
     K24O03V KC2024 08 02.63056323 05 39.194-20 38 51.32         21.0 GVEP063474
     K24O03V KC2024 08 02.63418623 05 38.537-20 38 52.76         20.8 GVEP063474
     K24O03V KC2024 08 02.63780923 05 37.802-20 38 55.61         20.8 GVEP063474
     K24O03V KC2024 08 02.64143323 05 37.109-20 38 57.44         20.8 GVEP063474

Observer details:
474 Mount John Observatory, Lake Tekapo.  Observers A. C. Gilmore, P. M.
    Kilmartin.  Measurer P. M. Kilmartin.  0.6-m f/6.3 Reflector + CCD.
673 Table Mountain Observatory, Wrightwood.  Observer J. Pittichova.  1.0-m
    f/15 reflector + CCD.
F51 Pan-STARRS 1, Haleakala.  Observers J. Herman, T. Lowe, P. Minguez, A.
    Schultz, I. Smith.  Measurers K. Chambers, T. de Boer, J. Fairlamb, H.
    Gao, M. Huber, C.-C. Lin, E. Magnier, Y. Ramanjooloo, R. Wainscoat, R.
    Weryk.  1.8-m Ritchey-Chretien + CCD.
T14 Canada-France-Hawaii Telescope, Maunakea.  Observers R. Wainscoat, J.
    Silva, V. Khatu.  Measurers R. Weryk, R. Wainscoat.  3.6-m f/4.1 reflector
    + CCD.

Orbital elements:
2024 OV3                                                 Earth MOID = 0.0732 AU
Epoch 2024 Oct. 17.0 TT = JDT 2460600.5                 MPC                     
M  68.76023              (2000.0)            P               Q                  
n   0.41369784     Peri.  194.37893     -0.85671832     +0.51516894             
a   1.7838043      Node    16.70149     -0.46414196     -0.74871658             
e   0.5935789      Incl.    5.02916     -0.22495771     -0.41716236             
P   2.38           H   20.95          G   0.15           U   9                  
Residuals in seconds of arc
240728 F51  0.1-  0.1-    240730 T14  0.0   0.0     240802 474  0.6-  0.2-
240728 F51  0.1+  0.1-    240730 T14  0.0   0.0     240802 474  0.3+  0.5+
240728 F51  0.0   0.2+    240731 673  0.0   0.1+    240802 474  0.0   0.2-
240730 T14  0.0   0.0     240731 673  0.6+  0.1-    240802 474  0.3+  0.1+

Ephemeris:
2024 OV3                 a,e,i = 1.78, 0.59, 5                   q = 0.7250
Date    TT    R. A. (2000) Decl.     Delta      r    Elong.  Phase     V
2024 07 06    00 26 19.1 -14 30 05   0.3581  1.1537   103.4    59.0    21.1
...
2024 07 21    23 45 18.3 -18 05 36   0.3953  1.2953   127.5    38.5    21.0
...
2024 07 29    23 20 25.7 -19 48 36   0.4232  1.3694   140.7    28.0    21.0
...
2024 08 04    23 01 18.5 -20 52 11   0.4505  1.4239   150.4    20.6    21.0
2024 08 05    22 58 09.1 -21 01 19   0.4557  1.4329   152.0    19.4    21.0
2024 08 06    22 55 00.8 -21 09 58   0.4611  1.4419   153.6    18.3    21.0
...
2024 08 12    22 36 50.3 -21 51 50   0.4978  1.4951   162.2    12.0    21.0
...
2024 08 20    22 15 19.9 -22 20 53   0.5588  1.5643   169.2     6.9    21.2
...
2024 09 04    21 46 30.7 -22 09 43   0.7101  1.6886   158.2    12.8    22.1

A. U. Tomatic                (C) Copyright 2024 MPC           M.P.E.C. 2024-P63





More information about the Iaude mailing list